Date/Time (UTC),ProbHail,ProbWind,ProbTor,MESH,VIL Density,Flash Rate,Max Flash Density,LJA sigma-level,Max 0-2km AzShear,LLAZ 98th%,MLAZ 98th%,MUCAPE,MLCAPE,CAPE -10C to -30C,MLCIN,SRH 0-1km AGL,EBShear,MeanWind 0-1km AGL,Norm. Sat. Growth Rate,PWAT,WBZ,AvgBeamHgt,size
2019/05/20 20:22,1,29,18,0.05,1.2,6,0.09,0.0,18,9,5,1108,167,321,0,454,67.2,43.3,0,1.7,10.6,5.1,901
2019/05/20 20:24,2,29,13,0.07,1.2,6,0.1,0.0,18,9,5,1102,126,320,0,454,67.6,42.6,0,1.7,10.3,5.3,829
2019/05/20 20:26,2,33,14,0.12,1.2,9,0.14,0.0,19,9,5,1102,126,320,0,454,67.6,42.6,0,1.7,10.3,5.3,829
2019/05/20 20:28,2,29,14,0.12,1.1,9,0.14,0.0,19,9,5,1102,118,319,0,454,67.7,42.5,0,1.7,10.4,5.4,860
2019/05/20 20:30,2,29,14,0.12,1.1,9,0.14,0.0,19,9,5,1097,105,317,0,456,67.7,42.1,0,1.7,10.3,5.4,822
2019/05/20 20:32,2,29,14,0.13,1.1,9,0.14,0.0,19,9,5,1085,77,315,0,456,67.5,41.6,0,1.7,10.2,5.7,850
2019/05/20 20:34,2,29,21,0.13,1.1,9,0.14,0.0,17,8,6,1151,206,329,0,429,66.9,41.9,0,1.7,10.5,4.9,44
2019/05/20 20:36,2,29,11,0.13,1.0,9,0.14,0.0,17,8,5,1071,59,314,0,453,67.2,40.9,0,1.7,10.0,5.9,912
2019/05/20 20:38,2,29,11,0.11,1.0,8,0.14,0.0,11,8,6,1158,211,333,0,422,66.1,41.3,0,1.7,10.4,5.0,407
2019/05/20 20:40,2,32,8,0.18,1.3,8,0.14,0.0,11,8,5,1160,174,333,0,421,65.5,40.6,0,1.7,10.4,5.3,522
2019/05/20 20:42,2,33,6,0.18,1.3,8,0.16,0.0,11,8,5,1140,147,328,0,428,65.4,40.1,0,1.7,10.3,5.5,511
2019/05/20 20:44,2,21,7,0.22,1.4,6,0.16,0.0,11,8,5,1109,119,324,0,431,64.9,39.2,0,1.7,10.3,5.8,542
2019/05/20 20:46,2,29,6,0.22,1.4,9,0.16,0.0,10,7,5,1083,97,319,0,438,64.9,38.9,0,1.7,10.2,6.0,529
2019/05/20 20:48,2,21,4,0.22,1.4,9,0.16,0.0,13,6,5,1056,73,312,0,440,64.7,38.4,0,1.7,10.2,6.2,538
2019/05/20 20:50,2,21,4,0.22,1.2,9,0.18,0.0,7,6,6,1143,137,331,0,428,64.6,39.2,0,1.7,10.3,5.5,106
2019/05/20 20:52,4,29,2,0.35,1.3,9,0.21,0.0,7,6,6,1099,97,323,0,439,64.8,38.8,0,1.7,10.3,5.8,101
2019/05/20 20:54,4,29,2,0.35,1.4,9,0.33,0.0,7,6,5,1085,89,320,0,441,64.7,38.6,0,1.7,10.3,6.0,93
2019/05/20 20:56,2,47,8,0.35,1.5,9,0.39,0.0,8,7,6,1220,282,311,999,464,70.1,46.6,0,1.8,11.8,5.8,234
2019/05/20 20:58,2,47,7,0.26,1.5,9,0.39,0.0,8,7,5,1213,242,306,999,466,70.5,46.5,0,1.8,11.5,6.0,211
2019/05/20 21:00,3,47,5,0.26,1.5,9,0.39,0.0,8,7,5,1207,189,299,999,470,70.9,46.2,0,1.8,10.8,6.3,185
2019/05/20 21:02,5,42,2,0.38,1.4,8,0.39,0.0,7,6,6,1229,156,294,999,467,70.9,45.6,0,1.8,10.2,6.5,288
2019/05/20 21:04,6,42,1,0.38,1.5,10,0.39,0.0,7,6,6,1240,102,289,999,470,70.1,45.2,0,1.8,9.6,6.9,314
2019/05/20 21:06,8,54,1,0.42,2.1,10,0.39,0.0,7,6,5,1283,86,290,999,467,69.5,44.5,0,1.8,9.2,7.2,259
2019/05/20 21:08,8,50,1,0.42,2.1,11,0.39,0.5,7,6,4,1299,77,291,999,467,69.2,44.3,0,1.8,9.0,7.3,248
2019/05/20 21:10,9,46,2,0.46,2.1,11,0.39,0.0,8,6,6,1320,59,292,999,467,68.8,43.9,0,1.8,8.8,7.5,236
2019/05/20 21:12,12,58,7,0.46,2.0,19,0.4,3.0,11,10,5,1324,49,291,999,468,68.5,43.5,0,1.8,8.6,7.6,289
2019/05/20 21:14,12,52,16,0.46,2.0,19,0.44,0.0,11,10,4,1334,44,292,999,467,68.4,43.4,0,1.8,8.5,7.6,220
2019/05/20 21:16,14,57,20,0.5,2.0,20,0.44,0.1,18,12,4,1338,40,293,999,466,68.3,43.0,0,1.8,8.4,7.6,206
2019/05/20 21:18,18,75,49,0.59,2.3,22,0.53,0.5,18,12,11,1340,36,294,999,465,68.2,42.6,0,1.8,8.4,7.5,211
2019/05/20 21:20,20,76,49,0.59,2.3,27,0.53,1.3,18,12,5,930,0,267,999,477,65.0,41.1,0,1.6,8.4,6.5,1536
2019/05/20 21:22,20,75,45,0.59,2.3,27,0.57,0.0,16,12,4,1326,29,296,999,459,67.6,42.0,0,1.7,8.4,7.3,203
2019/05/20 21:24,21,78,18,0.53,2.3,32,0.59,3.1,12,8,8,1334,37,301,999,451,66.8,41.4,0,1.7,8.4,6.9,275
2019/05/20 21:26,13,69,11,0.37,2.3,32,0.59,0.0,12,8,6,1326,36,300,999,450,66.2,41.3,0,1.7,8.4,6.8,269
2019/05/20 21:28,13,73,14,0.37,2.3,32,0.59,0.4,12,8,4,1263,31,292,999,446,63.9,40.9,0,1.7,8.4,6.6,212
2019/05/20 21:30,9,65,7,0.3,2.0,32,0.59,0.0,14,7,4,1276,44,295,999,439,63.6,40.5,0,1.7,8.4,6.4,372
2019/05/20 21:32,6,42,9,0.37,1.9,10,0.59,0.0,12,7,7,1285,57,297,999,434,62.5,40.1,0,1.7,8.4,6.2,396
2019/05/20 21:34,6,33,9,0.37,1.6,10,0.59,0.0,12,7,6,1216,39,285,999,435,61.1,39.9,0,1.7,8.4,6.1,353
2019/05/20 21:36,5,36,7,0.37,2.0,7,0.59,0.0,12,7,5,1234,79,290,0,426,59.5,39.4,0,1.7,8.4,5.9,382
2019/05/20 21:38,4,32,4,0.26,2.0,7,0.59,0.0,9,6,7,1187,82,282,0,421,58.6,39.2,0,1.7,8.4,5.7,398
2019/05/20 21:40,3,33,5,0.26,2.0,7,0.59,0.0,12,6,6,1156,74,275,0,420,58.0,38.9,0,1.7,8.4,5.5,371
2019/05/20 21:42,2,29,5,0.18,1.8,7,0.59,0.0,12,6,5,1117,72,268,0,416,57.7,38.6,0,1.7,8.5,5.3,390
2019/05/20 21:44,2,20,5,0.18,1.3,7,0.59,0.0,12,6,7,1080,74,262,999,413,57.6,38.2,0,1.7,8.5,5.2,352
2019/05/20 21:46,2,5,1,0.18,1.4,4,0.59,0.0,5,4,5,1106,112,270,999,404,57.2,37.6,0,1.7,8.7,4.9,211
2019/05/20 21:48,2,5,1,0.18,1.4,4,0.59,0.0,5,4,5,1083,109,267,999,402,57.0,37.3,0,1.7,8.8,4.8,176
2019/05/20 21:50,1,3,1,0.18,1.4,3,0.59,0.0,6,4,2,1045,95,258,999,398,57.2,36.9,0,1.7,8.9,4.7,160
2019/05/20 21:52,2,3,1,0.28,1.4,3,0.59,0.0,6,4,7,998,83,245,999,393,57.9,36.4,0,1.6,9.0,4.5,162
2019/05/20 21:54,4,36,16,0.28,1.4,6,0.59,0.0,14,5,6,959,271,243,6,513,62.4,44.5,0,1.9,9.4,4.7,789
2019/05/20 21:56,4,36,6,0.28,1.4,6,0.28,0.0,14,5,2,983,158,245,1,540,62.4,44.7,0,1.8,9.1,4.3,70
2019/05/20 21:58,3,32,4,0.24,1.3,6,0.25,0.0,6,5,3,982,142,249,1,544,62.9,44.7,0,1.8,9.0,4.2,109
2019/05/20 22:00,3,40,1,0.22,1.9,6,0.2,0.0,6,5,7,981,126,255,0,546,63.4,44.6,0,1.8,8.9,4.0,146
2019/05/20 22:01,3,46,2,0.23,1.9,9,0.2,0.0,6,5,7,974,166,250,4,538,62.9,44.3,0,1.8,9.1,4.2,800
2019/05/20 22:04,3,36,1,0.23,1.9,9,0.16,0.0,8,4,7,976,141,251,1,543,63.9,44.5,0,1.8,9.0,4.1,735
2019/05/20 22:06,3,32,1,0.23,1.5,9,0.16,0.0,8,4,6,952,56,261,0,557,65.9,44.7,0,1.8,8.5,3.9,207
2019/05/20 22:08,3,32,1,0.22,1.2,9,0.16,0.0,8,4,6,968,69,258,0,540,65.1,44.1,0,1.8,8.6,3.8,715
2019/05/20 22:10,1,2,1,0.13,1.2,3,0.16,0.0,6,3,6,938,36,259,0,549,65.8,44.4,0,1.8,8.4,3.8,570
2019/05/20 22:12,1,12,1,0.11,1.1,3,0.16,0.0,9,3,7,931,29,256,0,536,65.2,44.1,0,1.8,8.4,3.9,735
2019/05/20 22:14,2,5,1,0.11,0.9,3,0.16,0.0,9,3,7,911,17,257,0,544,65.9,44.2,0,1.8,8.4,3.8,595
2019/05/20 22:16,2,5,1,0.11,0.9,3,0.16,0.0,9,3,7,898,11,256,0,541,65.8,44.1,0,1.7,8.4,3.9,539
2019/05/20 22:18,2,2,0,0.11,0.9,3,0.16,0.0,3,2,7,879,6,253,0,530,65.1,43.8,0,1.7,8.4,3.9,475
2019/05/20 22:20,2,2,0,0.09,0.8,3,0.16,0.0,3,2,5,862,3,250,0,540,65.4,44.1,0,1.7,8.4,4.1,389
2019/05/20 22:22,2,2,0,0.08,0.9,3,0.16,0.0,3,2,5,843,1,246,0,534,64.9,43.9,0,1.7,8.4,4.1,389
2019/05/20 22:24,2,2,0,0.08,0.9,3,0.16,0.0,3,2,5,829,0,243,999,533,64.7,43.8,0,1.7,8.4,4.2,352
2019/05/20 22:26,2,2,0,0.12,1.1,4,0.16,0.0,3,2,4,797,0,235,999,517,63.5,43.1,0,1.7,8.4,4.1,364
2019/05/20 22:28,2,2,0,0.12,1.1,4,0.16,0.0,3,2,4,774,0,229,999,516,63.1,42.9,0,1.7,8.5,4.1,347
2019/05/20 22:30,3,3,1,0.22,1.1,4,0.14,0.0,4,3,4,755,0,223,999,524,63.5,43.1,0,1.7,8.5,4.1,301
2019/05/20 22:32,3,3,1,0.22,1.1,4,0.14,0.0,4,3,4,728,0,217,999,503,61.8,42.1,0,1.7,8.5,4.0,412
2019/05/20 22:34,1,1,1,0.22,1.3,3,0.11,0.0,4,3,3,693,0,202,999,505,61.8,41.9,0,1.7,8.5,4.0,256
2019/05/20 22:36,1,1,1,0.2,1.3,3,0.11,0.0,4,3,3,682,0,197,999,503,61.7,41.6,0,1.7,8.5,4.0,281
2019/05/20 22:38,1,1,0,0.2,1.3,3,0.11,0.0,4,2,3,677,0,192,999,500,61.6,41.4,0,1.6,8.5,4.0,292
2019/05/20 22:40,1,1,0,0.2,1.1,3,0.11,0.0,2,2,4,675,0,181,999,491,61.1,40.8,0,1.6,8.5,3.8,226
2019/05/20 22:42,1,1,0,0.17,1.0,3,0.11,0.0,4,2,4,676,0,178,999,488,61.1,40.5,0,1.6,8.5,3.8,249
2019/05/20 22:44,1,1,0,0.14,1.0,2,0.11,0.0,4,2,4,676,0,176,999,486,61.1,40.4,0,1.6,8.5,3.7,246
2019/05/20 22:46,1,1,1,0.14,1.1,2,0.11,0.0,5,3,2,681,0,166,999,465,61.3,39.1,0,1.6,8.5,3.2,819
2019/05/20 22:48,2,2,1,0.14,1.1,4,0.11,0.0,4,3,2,680,0,165,999,460,61.1,38.8,0,1.6,8.5,3.2,775
2019/05/20 22:50,2,2,1,0.14,1.1,4,0.11,0.0,4,3,2,671,0,165,999,450,60.6,38.6,0,1.6,8.5,3.4,518
2019/05/20 22:52,2,2,1,0.14,0.9,4,0.11,0.0,4,3,2,675,0,164,999,445,60.5,38.4,0,1.6,8.5,3.3,408
2019/05/20 22:54,2,1,0,0.1,1.0,4,0.11,0.0,5,2,2,662,0,164,999,435,60.2,37.9,0,1.6,8.5,3.3,407
2019/05/20 22:56,1,1,0,0.07,1.0,4,0.11,0.0,3,2,2,419,0,123,999,512,58.8,41.4,0,1.6,10.3,3.3,417
2019/05/20 22:58,1,1,0,0.06,1.0,4,0.09,0.0,2,2,2,410,0,120,999,509,58.7,41.3,0,1.6,10.3,3.2,406
2019/05/20 23:00,1,1,0,0.04,1.0,3,0.09,0.0,2,2,2,402,0,116,999,508,58.2,41.3,0,1.6,10.2,3.1,389
2019/05/20 23:03,1,1,0,0.04,0.9,1,0.08,0.0,3,2,2,386,0,112,999,505,58.6,41.1,0,1.6,10.2,3.2,425
2019/05/20 23:05,1,1,0,0.0,0.6,1,0.08,0.0,3,2,2,361,0,108,999,501,58.0,40.8,0,1.6,10.2,3.1,440
2019/05/20 23:08,1,1,0,0.0,0.5,1,0.08,0.0,2,2,2,356,0,108,999,500,57.8,40.8,0,1.6,10.2,3.1,423
2019/05/20 23:10,1,1,0,0.0,0.5,0,0.08,0.0,2,2,1,328,0,107,999,486,56.6,39.7,0,1.6,10.0,2.9,279
2019/05/20 23:12,1,1,0,0.0,0.5,0,0.08,0.0,3,2,2,347,0,106,999,497,57.2,40.6,0,1.6,10.2,2.9,238
2019/05/20 23:14,1,1,0,0.0,0.4,0,0.08,0.0,2,2,2,316,0,104,999,483,56.2,39.9,0,1.6,10.1,2.7,80
